Location: Waco, TX
(31.5480°N, 97.1670°W)
Time: 22:15:03
(UTC-05:00)

ISS - Pass Details

Date: 19 May 2017
Orbit: 402 x 409 km, 51.6° (Epoch: 23 May)

Event Time Altitude Azimuth Distance (km) Brightness Sun altitude
Rises 00:32:24 0° 251° (WSW) 2,320 - -37.1°
Reaches altitude 10° 00:34:45 10° 266° (W) 1,462 - -37.2°
Maximum altitude 00:37:28 24° 322° (NW) 899 - -37.4°
Drops below altitude 10° 00:40:11 10° 18° (NNE) 1,464 - -37.5°
Sets 00:42:32 0° 33° (NNE) 2,325 - -37.6°
